KORONAS-FOTON

Last updated on Thu Mar 05 2026 00:02:21 GMT+0000 (Coordinated Universal Time)

1 33504U 09003A 26063.57707152 .00016914 00000+0 37964-3 0 9990 2 33504 82.4280 281.1940 0010883 166.9286 193.2246 15.43184144944957
UTC large
Height (km)
Speed (km/s)
/
Latitude / Longitude
Inclination (degrees)
Orbital Period (minutes)
Azimuth
Elevation
Range (km)
Doppler Factor

Next 0 passes for location: London (51.5072 / 0.1276)

Sorry there are no passes over London.